Home > Weather > Billings > Past weeks

Flag for U.S.A. Weather for the Past 2 Weeks in Billings, Montana, U.S.A.

Now
29 °F

Passing clouds.


Feels Like: 18 °F
Forecast: 27 / 55 °F
Wind: 14 mph from Southwest

Location: Billings Logan International Airport

Current Time: Feb 8, 2016 at 8:04:35 AM

Latest Report: Feb 8, 2016 at 6:53 AM


Visibility: 10 mi

Pressure: 30.53 "Hg (27.11 "Hg at 946m altitude)

Humidity: 54%

Dew point: 14 °F

Location of BillingsLocation

Historic Weather in Billings — Graph

°F

Billings Temperature Yesterday

Maximum temperature yesterday: 42 °F (at 1:53 PM)
Minimum temperature yesterday: 27 °F (at 6:53 AM)
Average temperature yesterday: 35 °F

High & Low Weather Summary for the Past Weeks

 TemperatureHumidityPressure
High58 °F (Jan 28, 1:53 PM)92% (Feb 1, 9:53 PM)30.55 "Hg (Feb 1, 9:53 PM)
Low19 °F (Feb 3, 6:53 AM)23% (Feb 7, 1:53 PM)29.52 "Hg (Jan 29, 10:53 PM)
Average35 °F52%30.06 "Hg
* Reported Jan 24 6:53 AM — Feb 8 6:53 AM, Billings, Weather by CustomWeather, © 2016

Note: Actual official high and low records may vary slightly from our data, if they occured in-between our weather recording intervals... More about our weather records

Advertising

Billings Weather History for the Previous 24 Hours

 ConditionsComfort  
Time TempWeatherWind HumidityBarometerVisibility
6:53 AM
Mon, Feb 8
29 °FPassing clouds.14 mph54%30.53 "Hg10 mi
5:53 AM31 °FClear.15 mph49%30.51 "Hg10 mi
4:53 AM31 °FClear.10 mph47%30.49 "Hg10 mi
3:53 AM27 °FClear.6 mph53%30.49 "Hg10 mi
2:53 AM31 °FPassing clouds.8 mph43%30.47 "Hg10 mi
1:53 AM30 °FPassing clouds.12 mph49%30.47 "Hg10 mi
12:53 AM30 °FPartly cloudy.No wind45%30.51 "Hg10 mi
11:53 PM
Sun, Feb 7
32 °FPassing clouds.5 mph40%30.52 "Hg10 mi
10:53 PM32 °FPassing clouds.No wind43%30.51 "Hg10 mi
9:53 PM34 °FPassing clouds.3 mph37%30.52 "Hg10 mi
8:53 PM34 °FPassing clouds.No wind35%30.53 "Hg10 mi
7:53 PM33 °FPassing clouds.3 mph36%30.55 "Hg10 mi
6:53 PM34 °FPassing clouds.3 mph34%30.55 "Hg10 mi
5:53 PM34 °FPassing clouds.6 mph35%30.53 "Hg10 mi
4:53 PM38 °FPartly sunny.7 mph30%30.50 "Hg10 mi
3:53 PM41 °FScattered clouds.15 mph27%30.48 "Hg10 mi
2:53 PM42 °FScattered clouds.15 mph24%30.46 "Hg10 mi
1:53 PM42 °FScattered clouds.21 mph23%30.46 "Hg10 mi
12:53 PM40 °FScattered clouds.21 mph25%30.49 "Hg10 mi
11:53 AM39 °FPartly sunny.26 mph25%30.50 "Hg10 mi
10:53 AM39 °FPartly sunny.17 mph31%30.50 "Hg10 mi
9:53 AM36 °FScattered clouds.14 mph42%30.50 "Hg10 mi
8:53 AM32 °FScattered clouds.16 mph50%30.48 "Hg10 mi
Weather by CustomWeather, © 2016

See weather overviewHow to use our weather pages